SCP
3 3 3 3 3 3 3 3 2 2 2 1 1 1 1 1 1 1 1 1 1 0 0 0 0 0 0 0 0 0 0 0 0 0 0 0 0 0 0 0 0 0 0
3 3 3 3 3 3 3 3 2 2 2 1 1 1 1 1 1 1 1 1 1 0 0 0 0 0 0 0 0 0 0 0 0 0 0 0 0 0 0 0 0 0 0
3 3 3 2 2 2 2 2 2 2 2 1 1 1 1 1 1 1 1 1 1 1 0 1 1 1 0 0 0 0 0 0 0 0 0 0 0 0 0 0 0 0 0
3 3 2 2 2 2 2 2 2 2 1 1 1 1 1 1 1 1 1 1 1 1 1 1 1 1 1 0 0 0 0 0 0 0 0 0 0 0 0 0 0 0 0
2 2 2 2 2 2 2 2 2 1 1 1 1 1 1 1 1 1 1 1 1 1 1 1 1 1 1 0 0 0 0 0 0 0 0 0 0 0 0 0 0 0 0
2 2 2 2 2 2 1 1 1 1 1 1 1 1 1 1 1 1 1 1 0 0 0 1 1 1 1 1 1 1 0 0 0 0 0 0 0 0 0 0 0 0 0
1 1 1 1 1 1 1 1 1 1 1 1 1 1 1 1 1 1 1 0 0 0 0 1 1 1 1 1 1 1 1 0 0 0 0 0 0 0 0 0 0 0 0
1 1 1 1 1 1 1 1 1 1 1 1 1 1 1 1 1 1 1 0 0 0 1 1 1 1 1 1 1 1 1 0 0 0 0 0 0 0 0 0 0 0 0
1 1 1 1 1 1 1 1 1 1 1 1 1 1 1 1 1 1 1 0 0 0 1 1 1 1 1 1 1 1 1 1 0 0 0 0 0 0 0 0 0 0 0
1 1 1 1 1 1 1 1 1 1 1 1 1 1 1 1 1 0 0 0 0 0 0 1 1 1 1 1 1 1 1 1 0 0 0 0 0 0 0 0 0 0 0
1 1 1 1 1 1 1 1 0 0 0 0 0 0 0 0 0 0 0 0 0 0 0 0 1 1 1 1 1 1 0 0 0 0 0 0 0 0 0 0 0 0 0
1 1 1 1 1 0 0 0 0 0 0 0 0 0 0 0 0 0 0 0 0 0 0 0 0 0 0 1 1 0 0 0 0 0 0 0 0 0 0 0 0 0 0
1 1 1 1 1 0 0 0 0 0 0 0 0 0 0 0 0 0 0 0 0 0 0 0 0 0 0 1 0 0 0 0 0 0 0 0 0 0 0 0 0 0 0
1 1 1 1 1 1 0 0 0 0 0 0 0 0 0 0 0 0 0 0 0 0 0 0 0 0 0 0 0 0 0 0 0 0 0 0 0 0 0 0 0 0 0
1 1 1 1 1 1 1 0 0 0 0 0 0 0 0 0 0 1 1 0 0 0 0 0 0 0 0 0 0 0 0 0 0 0 0 0 0 0 0 0 0 0 0
1 1 1 1 1 1 1 1 1 1 1 1 0 0 1 1 1 1 1 1 1 0 0 0 0 0 0 0 0 0 0 0 0 0 0 0 0 0 0 0 0 0 0
1 1 1 1 1 1 1 1 1 1 1 1 1 1 1 1 1 1 1 1 1 1 0 0 0 0 0 0 0 0 0 0 0 0 0 0 0 0 0 0 0 0 0
1 1 1 1 1 1 1 1 1 1 1 1 1 1 1 1 1 1 1 1 1 1 0 0 0 0 0 0 0 0 0 0 0 0 0 0 0 0 0 0 0 0 0
1 1 1 1 1 1 1 1 1 1 1 1 1 1 1 1 1 1 1 1 1 1 0 0 0 0 0 0 0 0 0 0 0 0 0 0 0 0 0 0 0 0 0
1 1 1 1 1 1 1 1 1 1 1 1 1 1 1 1 1 1 1 1 1 0 0 0 0 0 0 0 0 0 0 0 0 0 0 0 0 0 0 0 0 0 0
1 1 1 1 1 1 1 1 1 1 1 0 0 0 0 0 0 0 0 0 0 0 0 0 0 0 0 0 0 0 0 0 0 0 0 0 0 0 0 0 0 0 0
1 1 1 1 1 1 1 1 1 1 1 0 0 0 0 0 0 0 0 0 0 0 0 0 0 0 0 0 0 0 0 0 0 0 0 0 0 0 0 0 0 0 0
1 1 1 1 1 1 1 1 1 1 1 0 0 0 0 0 0 0 0 0 0 0 0 0 0 0 0 0 0 0 0 0 0 0 0 0 0 0 0 0 0 0 0
1 1 1 1 1 1 1 1 1 1 1 0 0 0 0 0 0 0 0 0 0 0 0 0 0 0 0 0 0 0 0 0 0 0 0 0 0 0 0 0 0 0 0
1 1 1 1 1 1 1 1 1 0 0 0 0 0 0 0 0 0 0 0 0 0 0 0 0 0 0 0 0 0 0 0 0 0 0 0 0 0 0 0 0 0 0
0 0 0 0 0 0 0 0 0 0 0 0 0 0 0 0 0 0 0 0 0 0 0 0 0 0 0 0 0 0 0 0 0 0 0 0 0 0 0 0 0 0 0
Wind_Speed
11 12 12 12 12 11 11 10 10 9 8 6 6 5 5 4 3 3 6 6 5 5 4 3 4 2 2 3 4 3 3 2 2 2 1 2 3 3 2 2 3 4 5
12 12 12 12 12 12 12 11 10 10 9 6 5 5 5 4 3 3 5 6 5 5 5 3 4 3 2 3 3 3 2 2 2 2 2 1 1 2 4 3 4 4 3
14 13 13 12 13 12 12 11 10 10 10 8 6 5 4 3 3 4 4 5 6 6 4 5 4 4 4 4 4 4 3 2 2 2 1 1 2 2 1 3 3 3 3
13 13 13 12 12 12 11 10 10 10 9 8 8 9 7 6 6 5 5 5 5 6 5 5 4 3 2 4 5 5 3 3 2 2 1 1 1 1 1 1 2 3 3
12 13 13 12 12 12 11 9 9 9 9 9 8 8 7 5 5 5 6 6 5 5 5 5 4 4 3 4 4 4 3 2 2 2 2 2 1 2 2 2 2 2 2
11 11 11 11 10 10 10 10 9 9 9 9 9 8 8 7 7 7 6 6 4 4 6 6 5 4 4 4 4 3 4 2 2 1 1 1 1 1 1 2 2 2 2
10 11 11 11 10 10 10 10 10 9 9 10 9 8 8 7 8 7 7 6 5 5 6 6 5 4 4 4 4 4 4 4 3 2 1 1 1 1 1 1 1 2 2
10 10 11 11 10 10 10 10 10 9 9 9 8 7 7 5 5 6 6 6 5 5 6 6 6 5 5 6 5 4 4 4 3 4 2 1 1 1 1 0 0 1 1
10 10 10 10 9 9 9 9 8 8 8 8 7 7 7 6 5 5 6 5 4 5 7 7 7 6 6 5 5 4 4 4 4 3 3 2 1 1 1 0 0 1 1
8 9 9 9 8 8 7 7 7 7 7 8 7 7 7 6 5 5 6 5 5 4 5 7 7 6 6 6 5 4 4 4 3 2 3 2 1 1 1 0 1 1 0
9 9 8 8 8 8 7 7 7 7 6 6 6 5 6 6 6 5 6 5 4 5 5 6 6 6 6 5 5 5 5 5 4 3 3 3 1 0 1 1 1 1 1
10 11 10 8 8 8 8 7 7 7 6 5 5 5 5 5 5 6 5 5 5 5 5 5 5 6 6 5 5 6 6 5 5 4 3 3 2 1 1 1 1 1 1
10 10 9 8 7 7 6 7 7 7 7 6 6 5 5 5 5 5 5 5 4 4 4 5 5 5 5 5 5 5 4 4 4 3 3 2 2 2 1 0 1 1 2
9 9 8 7 6 6 5 5 5 6 6 6 6 5 5 5 5 4 4 5 5 4 4 4 5 5 5 5 5 5 4 4 4 4 3 3 3 2 1 1 1 1 2
9 9 8 7 6 6 5 4 5 5 5 6 6 6 5 5 4 4 5 5 5 5 4 4 4 4 4 5 6 6 6 6 6 5 5 6 8 9 5 4 3 2 2
8 8 8 7 6 6 5 5 5 5 5 5 5 5 5 5 5 4 5 5 4 4 4 4 4 4 4 6 8 7 6 6 6 6 6 7 8 11 13 14 13 9 4
9 8 7 6 6 5 5 5 5 5 5 5 4 5 5 5 4 5 5 5 4 4 4 4 5 5 6 9 10 9 7 6 5 5 5 5 6 7 8 11 14 14 14
8 8 6 7 6 5 5 5 5 5 5 4 4 4 4 4 5 4 5 5 5 5 5 6 6 6 8 10 11 11 8 7 6 6 6 6 6 6 6 8 9 9 9
7 6 6 6 6 5 5 5 5 5 5 4 4 4 4 4 5 5 5 5 6 6 6 6 7 8 8 9 11 9 7 7 8 7 7 7 7 10 9 9 9 8 6
6 6 5 6 6 5 5 5 5 5 4 4 4 4 4 5 5 6 6 6 7 8 8 8 8 9 8 8 9 8 6 8 8 8 9 12 10 11 10 8 7 7 5
6 6 6 6 5 4 5 5 5 5 4 5 5 6 5 6 7 6 7 8 8 9 9 9 9 9 9 9 10 8 6 7 8 7 7 7 12 13 12 9 7 6 3
6 5 5 6 5 4 5 6 5 5 5 6 7 6 6 6 6 7 7 8 9 9 9 9 9 7 7 9 11 12 11 9 9 8 7 7 11 12 11 8 7 7 5
6 5 6 6 6 5 5 6 5 6 7 7 7 7 7 6 6 7 7 7 6 7 7 7 8 7 7 9 14 14 15 14 10 9 11 10 10 9 7 7 6 4 3
6 6 7 6 6 5 6 6 5 7 8 9 8 7 8 8 7 6 5 5 5 6 7 7 8 7 6 6 6 7 10 13 11 8 9 9 7 4 4 3 2 2 3
6 6 6 6 6 6 7 6 6 8 9 9 9 9 9 9 9 9 8 7 6 5 6 6 7 8 7 6 7 7 6 6 7 6 4 4 3 2 2 2 3 3 3
6 6 7 8 7 7 7 6 6 7 9 8 8 7 8 8 8 10 11 17 14 16 14 12 11 9 11 12 12 12 11 10 8 5 4 4 3 3 3 3 3 3 3
Wind_Direction
155 153 160 164 164 159 161 166 169 164 161 167 170 169 168 169 167 164 156 164 171 168 193 166 159 187 164 162 150 137 154 186 164 125 155 211 200 186 182 201 185 192 189
154 155 161 166 166 163 166 169 172 169 170 173 171 170 163 167 172 178 156 169 175 177 185 173 173 173 158 164 151 143 154 200 177 164 159 189 236 219 204 187 197 197 192
160 161 166 169 168 167 171 175 174 172 175 170 166 165 150 159 175 178 167 180 181 185 186 176 188 171 175 165 172 174 187 204 190 192 161 179 200 213 225 208 195 171 180
157 162 166 169 172 170 172 171 173 175 177 172 175 175 175 180 183 179 174 182 190 189 186 178 182 182 183 161 186 186 195 196 206 203 189 179 153 162 170 250 197 179 190
158 162 167 170 170 169 169 171 172 176 179 182 183 185 188 184 178 176 175 181 190 194 187 182 186 184 191 183 195 164 189 198 205 201 197 213 196 218 180 197 200 200 194
153 156 161 160 161 164 168 170 172 180 182 187 190 193 192 184 181 179 175 183 186 196 192 189 189 189 196 184 182 172 190 208 215 209 188 182 211 215 208 179 185 193 217
149 154 156 158 161 166 169 171 173 181 186 190 194 196 195 187 184 181 184 188 189 195 193 192 185 193 191 183 178 179 191 200 205 203 241 238 246 221 215 171 202 189 193
155 157 159 160 163 168 170 171 174 181 186 189 192 192 187 189 190 184 186 197 199 195 180 181 184 196 193 191 176 182 191 191 192 204 213 250 254 261 253 224 224 201 210
149 150 150 153 155 163 166 169 173 177 181 186 187 186 185 189 190 184 191 203 200 194 175 180 185 191 190 190 173 188 188 174 180 199 201 219 250 247 265 290 28 157 233
139 137 141 141 147 151 153 155 166 172 178 182 187 185 183 185 187 187 195 197 197 199 180 184 186 184 183 185 179 189 185 176 182 193 190 195 253 253 245 254 336 355 253
134 133 138 138 139 141 148 154 159 162 169 176 180 176 176 181 183 187 190 186 186 188 187 181 181 184 186 180 178 195 185 180 184 202 187 180 221 337 337 4 350 347 34
130 137 144 144 148 149 152 154 158 163 164 165 165 167 164 170 178 185 186 184 182 186 182 174 179 188 184 179 180 199 190 181 185 193 185 181 185 155 1 354 8 20 48
131 135 140 143 149 148 149 153 160 158 157 157 158 158 165 170 177 181 180 177 175 180 177 175 183 187 178 178 184 190 181 170 166 165 168 166 151 159 144 80 23 28 42
134 134 134 135 135 133 138 145 147 146 153 157 161 160 169 175 179 173 171 169 168 168 172 174 175 172 171 174 171 160 151 130 116 109 105 101 111 118 133 108 57 43 31
140 139 139 135 136 135 138 138 141 143 149 156 162 165 168 167 166 163 163 161 165 168 160 158 157 159 165 170 155 142 136 124 114 101 95 90 89 78 74 80 64 61 55
143 139 136 137 142 144 148 148 147 145 145 151 159 158 162 163 162 159 149 147 150 148 144 146 149 150 155 134 136 136 127 124 121 116 109 102 91 87 82 77 70 63 66
137 138 142 143 143 148 152 152 145 142 143 146 148 149 155 159 157 158 147 146 144 137 131 127 118 112 109 117 120 122 123 117 115 117 117 112 105 101 98 86 76 63 58
133 136 140 136 139 145 149 146 145 139 139 137 136 137 143 149 145 140 136 133 126 121 113 108 107 107 104 107 109 109 108 100 94 91 93 95 86 87 97 98 85 70 54
113 122 130 129 129 134 134 136 138 138 138 133 131 133 134 132 130 132 131 126 117 110 107 106 105 101 97 101 108 109 106 98 86 79 75 85 84 73 86 96 95 90 81
93 100 111 114 114 114 124 131 130 123 120 122 117 114 121 128 123 118 117 114 109 105 102 95 94 97 94 90 101 108 113 107 97 84 74 69 77 74 74 87 92 89 76
95 100 104 103 101 108 117 123 119 119 117 113 107 102 101 105 106 107 110 111 109 104 99 95 88 85 86 84 84 94 103 110 106 98 88 77 76 73 69 72 77 77 59
101 101 98 97 92 97 113 112 107 107 109 108 104 102 99 100 105 105 105 108 112 110 106 100 92 80 77 78 81 86 90 99 100 98 96 91 83 77 72 69 61 44 26
95 93 97 94 87 84 98 109 108 109 109 103 98 97 96 91 92 100 105 107 110 114 114 112 107 98 86 77 79 84 87 88 92 95 102 100 92 84 76 72 56 39 30
95 95 97 95 85 79 85 95 107 111 108 105 100 97 95 89 82 79 84 96 104 115 120 119 116 110 99 93 93 95 94 94 97 102 103 95 87 82 83 82 73 77 55
92 96 102 100 93 87 85 85 97 110 110 108 106 102 96 93 84 74 61 69 65 87 114 116 117 121 113 101 102 108 103 104 106 114 114 116 120 123 116 95 74 62 56
93 96 99 98 93 90 88 85 94 111 115 113 110 106 106 103 101 97 80 60 67 69 74 86 99 94 102 105 94 92 95 98 107 106 116 110 102 95 88 82 81 74 59